Weather Roundup
Issued by NWS Chicago, IL

Home | Current Version | Previous Version | Graphics & Text | Print | Product List | Glossary On
Versions: 1 2 3 4 5 6 7 8 9 10 11 12 13 14 15 16 17 18 19 20 21 22 23 24 25 26 27 28 29 30 31 32 33 34 35 36 37 38 39 40 41 42 43 44 45 46 47 48 49 50
000
NZUS59 KLOT 221308
HRRLOT

CHICAGO AREA WEATHER ROUNDUP
NATIONAL WEATHER SERVICE CHICAGO/ROMEOVILLE IL
800 AM CDT TUE AUG 22 2017

NOTE: "FAIR" INDICATES FEW OR NO CLOUDS BELOW 12,000 FEET WITH NO
SIGNIFICANT WEATHER AND/OR OBSTRUCTIONS TO VISIBILITY.

* THESE STATIONS ARE NOT UNDER NWS QUALITY CONTROL. THEY ALSO MAY NOT
  REPORT WEATHER SUCH AS PRECIPITATION OR FOG.

ILZ005-006-012>014-019>023-221400-
NORTHEAST ILLINOIS

CITY           SKY/WX    TMP DP  RH WIND       PRES   REMARKS
OHARE          CLOUDY    71  66  84 SW12      29.87S
MIDWAY         CLOUDY    71  68  90 W13       29.88S
AURORA         CLOUDY    69  68  96 SW9       29.90S
LANSING*       PTSUNNY   70  66  86 W8        29.89F
JOLIET*        CLOUDY    71  69  95 SW7       29.90S
WAUKEGAN       PTSUNNY   70  65  84 VRB6      29.85R
DUPAGE AIRPORT CLOUDY    69  69 100 SW9       29.89R
WHEELING       CLOUDY    71  66  84 W8        29.88S
MORRIS*        CLOUDY    69  67  95 SW6       29.90S
LEWIS AIRPORT* CLOUDY    69  65  88 W8        29.89F
NORTHERLY ISL    N/A     71  67  87 SW5         N/A
$$

WIZ051-052-058>065-066-070>072-221400-
SOUTHEAST WISCONSIN

CITY           SKY/WX    TMP DP  RH WIND       PRES   REMARKS
MILWAUKEE      CLOUDY    71  62  73 W10G22    29.82S
KENOSHA*       CLOUDY    70  63  78 W16       29.85R
RACINE*        PTSUNNY   70  64  81 W10G20    29.85R
WAUKESHA       CLOUDY    64  61  88 SW13G18   29.85R
WEST BEND      CLOUDY    66  63  88 W13       29.82S
$$

INZ001>003-010>013-019-020-221400-
NORTHWEST INDIANA

CITY           SKY/WX    TMP DP  RH WIND       PRES   REMARKS
GARY*          CLOUDY    72  68  88 SW7       29.89F
MICHIGAN CITY* NOT AVBL
RENSSELAER*    NOT AVBL
VALPARAISO     CLOUDY    71  69  93 W13       29.91S
$$

LMZ740>746-221400-
SOUTHERN LAKE MICHIGAN

STATION/POSITION TIME  SKY/WX   TEMP WIND        PRES    VSBY
                                AIR  DIR/SP/G
                 (UTC)          (F)  (DEG/KT/KT) (MB)    (MI)
HARRISON CRIB    1230            73  240/ 15/ 18   N/A
BURNHAM HARBOR   NOT AVBL
CALUMET HARBOR   1248            70  220/  3/  6 1011.3R
BURNS HARBOR     1240            71  230/ 12/ 19 1012.9R
MICHIGAN CITY    1240            70  210/ 17/ 19   N/A
$$

ABBREVIATIONS USED IN REMARKS
   TC - TEMPERATURE IN CELSIUS
  WCI - WIND CHILL INDEX
   HX - HEAT INDEX
  VSB - VISIBILITY
$$




USA.gov is the U.S. government's official web portal to all federal, state and local government web resources and services.